Stündliche Wetter Warstein

Heute, 26 Oktober, Montag

Zeit Temperatur Niederschläge Wind Luftdruck Luftfeuchtigkeit
00:00 +8°C° 0.1 mm 3 m/S 720 mmHg 91%
01:00 +8°C° 0.1 mm 3 m/S 720 mmHg 91%
02:00 +8°C° 0 mm 3 m/S 720 mmHg 91%
03:00 +8°C° 0 mm 3 m/S 720 mmHg 90%
04:00 +7°C° 0 mm 3 m/S 719 mmHg 90%
05:00 +7°C° 0 mm 3 m/S 719 mmHg 91%
06:00 +5°C° 0 mm 3 m/S 719 mmHg 92%
07:00 +5°C° 0 mm 3 m/S 720 mmHg 93%
08:00 +7°C° 0 mm 3 m/S 720 mmHg 89%
09:00 +8°C° 0 mm 3 m/S 720 mmHg 86%
10:00 +7°C° 0 mm 4 m/S 720 mmHg 83%
11:00 +8°C° 0 mm 4 m/S 720 mmHg 80%
12:00 +8°C° 0 mm 4 m/S 720 mmHg 76%
13:00 +8°C° 0 mm 4 m/S 720 mmHg 73%
14:00 +8°C° 0 mm 4 m/S 720 mmHg 74%
15:00 +8°C° 0 mm 4 m/S 720 mmHg 74%
16:00 +8°C° 0 mm 4 m/S 719 mmHg 74%
17:00 +7°C° 0 mm 4 m/S 719 mmHg 78%
18:00 +6°C° 0 mm 4 m/S 720 mmHg 82%
19:00 +5°C° 0 mm 3 m/S 720 mmHg 85%
20:00 +5°C° 0 mm 4 m/S 720 mmHg 86%
21:00 +5°C° 0 mm 4 m/S 720 mmHg 87%
22:00 +5°C° 0 mm 4 m/S 720 mmHg 89%
23:00 +5°C° 0 mm 4 m/S 720 mmHg 89%

Morgen, 27 Oktober, Dienstag

Zeit Temperatur Niederschläge Wind Luftdruck Luftfeuchtigkeit
00:00 +5°C° 0 mm 4 m/S 720 mmHg 90%
01:00 +5°C° 0 mm 4 m/S 720 mmHg 90%
02:00 +5°C° 0 mm 4 m/S 720 mmHg 90%
03:00 +5°C° 0 mm 4 m/S 720 mmHg 89%
04:00 +5°C° 0 mm 4 m/S 720 mmHg 89%
05:00 +5°C° 0 mm 4 m/S 720 mmHg 87%
06:00 +5°C° 0 mm 4 m/S 720 mmHg 86%
07:00 +5°C° 0 mm 4 m/S 720 mmHg 85%
08:00 +6°C° 0 mm 4 m/S 720 mmHg 82%
09:00 +6°C° 0 mm 4 m/S 720 mmHg 79%
10:00 +7°C° 0 mm 5 m/S 721 mmHg 76%
11:00 +8°C° 0.1 mm 5 m/S 721 mmHg 74%
12:00 +8°C° 0.1 mm 5 m/S 721 mmHg 72%
13:00 +9°C° 0.1 mm 5 m/S 721 mmHg 70%
14:00 +8°C° 0.1 mm 5 m/S 721 mmHg 71%
15:00 +8°C° 0.1 mm 5 m/S 721 mmHg 72%
16:00 +8°C° 0.1 mm 4 m/S 720 mmHg 73%
17:00 +7°C° 0 mm 4 m/S 720 mmHg 77%
18:00 +6°C° 0 mm 4 m/S 720 mmHg 82%
19:00 +5°C° 0 mm 4 m/S 720 mmHg 86%
20:00 +5°C° 0 mm 4 m/S 720 mmHg 85%
21:00 +5°C° 0 mm 5 m/S 720 mmHg 84%
22:00 +5°C° 0 mm 6 m/S 720 mmHg 84%
23:00 +5°C° 0 mm 6 m/S 719 mmHg 83%

übermorgen, 28 Oktober, Mittwoch

Zeit Temperatur Niederschläge Wind Luftdruck Luftfeuchtigkeit
00:00 +6°C° 0 mm 7 m/S 719 mmHg 82%
01:00 +6°C° 0 mm 7 m/S 718 mmHg 81%
02:00 +8°C° 0.2 mm 7 m/S 719 mmHg 83%
03:00 +8°C° 0.2 mm 6 m/S 719 mmHg 86%
04:00 +8°C° 0.2 mm 6 m/S 719 mmHg 88%
05:00 +8°C° 0.5 mm 5 m/S 719 mmHg 88%
06:00 +7°C° 0.5 mm 4 m/S 720 mmHg 89%
07:00 +8°C° 0.5 mm 3 m/S 720 mmHg 89%
08:00 +7°C° 0.2 mm 4 m/S 720 mmHg 85%
09:00 +8°C° 0.2 mm 4 m/S 720 mmHg 81%
10:00 +8°C° 0.2 mm 5 m/S 720 mmHg 77%
11:00 +9°C° 0.1 mm 6 m/S 720 mmHg 74%
12:00 +10°C° 0.1 mm 6 m/S 721 mmHg 71%
13:00 +10°C° 0.1 mm 7 m/S 721 mmHg 67%
14:00 +10°C° 0.1 mm 6 m/S 720 mmHg 71%
15:00 +9°C° 0.1 mm 6 m/S 720 mmHg 75%
16:00 +8°C° 0.1 mm 6 m/S 720 mmHg 79%
17:00 +8°C° 0.1 mm 6 m/S 720 mmHg 80%
18:00 +8°C° 0.1 mm 6 m/S 720 mmHg 81%
19:00 +7°C° 0.1 mm 6 m/S 721 mmHg 82%
20:00 +7°C° 0 mm 5 m/S 721 mmHg 83%
21:00 +7°C° 0 mm 5 m/S 721 mmHg 84%
22:00 +7°C° 0 mm 5 m/S 721 mmHg 85%
23:00 +7°C° 0.1 mm 5 m/S 721 mmHg 85%

29 Oktober, Donnerstag

Zeit Temperatur Niederschläge Wind Luftdruck Luftfeuchtigkeit
00:00 +7°C° 0.1 mm 5 m/S 720 mmHg 85%
01:00 +7°C° 0.1 mm 5 m/S 720 mmHg 85%
02:00 +7°C° 0.5 mm 5 m/S 721 mmHg 86%
03:00 +5°C° 0.5 mm 6 m/S 721 mmHg 87%
04:00 +5°C° 0.5 mm 6 m/S 721 mmHg 88%
05:00 +5°C° 0.2 mm 6 m/S 722 mmHg 88%
06:00 +5°C° 0.2 mm 6 m/S 722 mmHg 88%
07:00 +5°C° 0.2 mm 6 m/S 723 mmHg 88%
08:00 +5°C° 0.1 mm 6 m/S 723 mmHg 86%
09:00 +7°C° 0.1 mm 6 m/S 724 mmHg 85%
10:00 +7°C° 0.1 mm 6 m/S 724 mmHg 84%
11:00 +8°C° 0 mm 6 m/S 725 mmHg 81%
12:00 +8°C° 0 mm 6 m/S 725 mmHg 77%
13:00 +9°C° 0 mm 6 m/S 725 mmHg 74%
14:00 +9°C° 0 mm 6 m/S 725 mmHg 74%
15:00 +9°C° 0 mm 6 m/S 725 mmHg 75%
16:00 +9°C° 0 mm 5 m/S 726 mmHg 75%
17:00 +9°C° 0 mm 6 m/S 726 mmHg 76%
18:00 +9°C° 0 mm 6 m/S 726 mmHg 76%
19:00 +9°C° 0 mm 7 m/S 726 mmHg 76%
20:00 +9°C° 0.3 mm 7 m/S 726 mmHg 80%
21:00 +9°C° 0.3 mm 7 m/S 726 mmHg 84%
22:00 +10°C° 0.3 mm 7 m/S 726 mmHg 87%
23:00 +10°C° 0.2 mm 7 m/S 726 mmHg 87%

30 Oktober, Freitag

Zeit Temperatur Niederschläge Wind Luftdruck Luftfeuchtigkeit
00:00 +10°C° 0.2 mm 7 m/S 726 mmHg 87%
01:00 +10°C° 0.2 mm 7 m/S 726 mmHg 87%
02:00 +10°C° 0 mm 6 m/S 726 mmHg 87%
03:00 +10°C° 0 mm 6 m/S 727 mmHg 86%
04:00 +10°C° 0 mm 6 m/S 727 mmHg 86%
05:00 +10°C° 0 mm 6 m/S 727 mmHg 86%
06:00 +10°C° 0 mm 6 m/S 727 mmHg 85%
07:00 +10°C° 0 mm 5 m/S 727 mmHg 85%
08:00 +10°C° 0 mm 6 m/S 727 mmHg 83%
09:00 +11°C° 0 mm 6 m/S 727 mmHg 81%
10:00 +11°C° 0 mm 6 m/S 728 mmHg 78%
11:00 +11°C° 0 mm 6 m/S 728 mmHg 76%
12:00 +13°C° 0 mm 6 m/S 728 mmHg 74%
13:00 +13°C° 0 mm 6 m/S 728 mmHg 72%
14:00 +13°C° 0 mm 6 m/S 728 mmHg 73%
15:00 +13°C° 0 mm 5 m/S 728 mmHg 74%
16:00 +13°C° 0 mm 5 m/S 728 mmHg 75%
17:00 +12°C° 0 mm 5 m/S 728 mmHg 78%
18:00 +11°C° 0 mm 4 m/S 728 mmHg 81%
19:00 +11°C° 0 mm 4 m/S 728 mmHg 84%
20:00 +10°C° 0 mm 4 m/S 728 mmHg 85%
21:00 +10°C° 0 mm 4 m/S 728 mmHg 86%
22:00 +10°C° 0 mm 4 m/S 728 mmHg 86%
23:00 +10°C° 0 mm 4 m/S 728 mmHg 84%

31 Oktober, Samstag

Zeit Temperatur Niederschläge Wind Luftdruck Luftfeuchtigkeit
00:00 +10°C° 0 mm 4 m/S 727 mmHg 82%
01:00 +10°C° 0 mm 4 m/S 727 mmHg 81%
02:00 +10°C° 0 mm 4 m/S 726 mmHg 80%
03:00 +10°C° 0 mm 4 m/S 726 mmHg 80%
04:00 +10°C° 0 mm 4 m/S 726 mmHg 80%
05:00 +9°C° 0 mm 5 m/S 726 mmHg 82%
06:00 +9°C° 0 mm 5 m/S 725 mmHg 83%
07:00 +9°C° 0 mm 5 m/S 725 mmHg 85%
Mehr zeigen

Wir brauchen deine Erlaubnis

Meteoprog und unser Service Anbieter werden persönliche Daten aufbewahren, so wie Cookies, Geräte Bezeichnung oder ähnliche Technologien von deinem Gerät und Prozess, so wie Persönliche Daten Inhalte und Werbungen, genauso wie social Media und den Verkehr zu analysieren.

  • Aufbewahrung und/oder Zugang zu deiner Geräte Informationen.

    Cookies, Geräte Bezeichnung oder andere Informationen, können aufbewahrt oder Zugang zu deinem Gerät erhalten, für den Grund, der oben angegeben wird.

  • Personalisierte Werbung und Inhalte, Messungen, Einblick in das Publikum und Produkt Entwicklung.

    Werbungen und Inhalte können personalisiert werden, basierend auf ein Profil. Mehr Daten können besser personalisierte Werbungen und Inhalte hinzufügen. Werbung und Inhalte können gezeigt und gemessen werden. Einblicke über das Publikum, welche die Werbung gesehen haben und den Inhalt, können abgeleitet werden. So wie Daten können genutzt werden, um es zu verbessern oder die Benutzer Erfahrung zu verbessern das System und die Software.

Wenn du “Ich stimme zu” klickst, erlaubst du uns, die Cookies zu benutzen die Geräte Bezeichnung, den Web oder ähnliche Technologien zu benutzen. Deine Settings, können in deinem Gerät bei deinem Browser geändert werden.

Für den bestimmten Zweck, berechtigten Interessen beruhen darauf, mehr als auf den Inhalt. Du kannst mehr darüber in unseren Privaten und Cookie Politik lesen.